{"data":{"norad_id":55263,"epoch":"2026-09-17T12:03:07.131168Z","epoch_age_seconds":277136,"freshness":"STALE","line1":"1 55263U 23008A   26260.50216587  .00000134  00000+0  00000+0 0  9990","line2":"2 55263   0.0086 123.3006 0000420 137.9896 299.7594  1.00272077 13444","mean_motion":1.00272077,"eccentricity":4.2e-5,"inclination_deg":0.0086,"raan_deg":123.3006,"arg_perigee_deg":137.9896,"mean_anomaly_deg":299.7594,"bstar":0,"rev_number":1344,"period_min":1436.0927220048,"perigee_km":35784.742187885,"apogee_km":35788.284018494,"semimajor_km":42164.650103189,"source":"CELESTRAK","updated_at":"2026-09-20T09:00:35.329718Z"}}